Погода в Розенхайме

Германия     47°51′06″N   12°07′52″E
темп.,
°C
ветер,
м/с
пор.,
м/с
влажн.,
%
обл.,
%
осадки,
мм/ч
давл.,
гПа
погр.,
м
17 мая, пн
пн1723:00+7ю2497100 4.9 100699
02:00+7ююз2497100 6.0 100899
05:00+6зюз1292100 0.3 100891
08:00+8з31085100 0.6 10091285
11:00+10зсз5107887 0.9 10091601
14:00+11зсз6106694 2.4 10101811
17:00+10зсз4107478 1.5 10111685
20:00+7з37865 2.4 1013513
18 мая, вт
вт1823:00+5ю239171 0.0 101563
02:00+5ююз2391100 0.0 1017120
05:00+3ю349397 0.0 101776
08:00+7ююз12779 0.0 1017214
11:00+11сз256373 0.3 10161333
14:00+12з3762100 1.4 10141800
17:00+8з1290100 2.2 101684
20:00+6ю2396100 5.9 101897
19 мая, ср
ср1923:00+5ююз2398100 1.9 1019119
02:00+5ююз2394100 3.8 102071
05:00+4з2297100 0.8 1020145
08:00+4ююз2497100 3.1 1021416
11:00+8зсз2586100 0.9 10201027
14:00+9сз138399 2.6 1019788
17:00+9сз2285100 2.5 1018568
20:00+6зсз1193100 4.9 101814
20 мая, чт
чт2023:00+4зсз119787 1.2 102130
02:00+5ссз1399100 2.3 1021132
05:00+4юз1398100 6.7 1023387
08:00+4з1498100 8.5 1024761
11:00+4з1498100 2.6 1026866
14:00+4юз1398100 3.6 1027416
17:00+8зюз237889 0.3 1025958
20:00+7ююз239389 1.2 102664
21 мая, пт
пт2123:00+4ю349691 0.3 102869
02:00+2ю34975 0.3 102766
05:00+1ю34974 0.0 102668
08:00+5ю23885 0.0 1024162
11:00+14ююв124384 0.0 1019994
14:00+17ююв0234100 0.0 10161481
17:00+18в13375 0.0 10131439
20:00+12ссз1179100 0.0 101212